GW1435 Weather Reports


time (UTC)temp
C
wind
direction
speed
KPH
gust
KPH
rain 1hr
cm
rain 24hr
cm
rain mn
cm
humidity
%
barometer
mb
20260505053545 16 200 0.0 8.0 0.00 0.00 0.00 75 1007.5
20260505053103 16 0 1.6 11.3 0.00 0.00 0.00 75 1007.6
20260505052544 16 0 0.0 11.3 0.00 0.00 0.00 75 1007.6
20260505052046 16 0 0.0 4.8 0.00 0.00 0.00 74 1007.8
20260505051553 16 0 0.0 3.2 0.00 0.00 0.00 74 1007.9
20260505051046 16 0 0.0 8.0 0.00 0.00 0.00 74 1008.0
20260505050543 16 0 0.0 8.0 0.00 0.00 0.00 73 1007.9
20260505041559 17 0 0.0 8.0 0.00 0.00 0.00 69 1008.3
20260505041046 18 207 0.0 9.7 0.00 0.00 0.00 68 1008.3
20260505040544 18 0 0.0 9.7 0.00 0.00 0.00 68 1008.3
20260505040106 18 211 1.6 12.9 0.00 0.00 0.00 68 1008.3
20260505035545 18 184 1.6 12.9 0.00 0.00 0.00 68 1008.3
20260505035043 18 0 1.6 14.5 0.00 0.00 0.00 67 1008.4
20260505034555 18 0 1.6 14.5 0.00 0.00 0.00 67 1008.4
20260505034043 18 0 0.0 12.9 0.00 0.00 0.00 67 1008.4
20260505033544 18 175 1.6 11.3 0.00 0.00 0.00 66 1008.5
20260505033049 18 192 1.6 12.9 0.00 0.00 0.00 66 1008.5
20260505032546 18 0 1.6 14.5 0.00 0.00 0.00 66 1008.6
20260505032043 18 0 1.6 14.5 0.00 0.00 0.00 65 1008.5
20260505031552 18 189 4.8 14.5 0.00 0.00 0.00 65 1008.3
20260505031044 18 0 1.6 17.7 0.00 0.00 0.00 65 1008.3
20260505030544 18 223 3.2 17.7 0.00 0.00 0.00 65 1008.3
20260505030100 18 176 0.0 16.1 0.00 0.00 0.00 64 1008.2
20260505025546 18 0 4.8 16.1 0.00 0.00 0.00 64 1008.2
20260505025044 19 179 0.0 11.3 0.00 0.00 0.00 64 1008.2
20260505024551 19 210 1.6 11.3 0.00 0.00 0.00 63 1008.1
20260505024045 19 0 3.2 11.3 0.00 0.00 0.00 63 1008.0
20260505023544 19 212 3.2 9.7 0.00 0.00 0.00 63 1007.9
20260505023057 19 180 1.6 8.0 0.00 0.00 0.00 62 1007.9
20260505022543 19 214 1.6 14.5 0.00 0.00 0.00 62 1007.9
20260505022044 20 0 0.0 14.5 0.00 0.00 0.00 62 1007.8
20260505021557 20 244 0.0 9.7 0.00 0.00 0.00 61 1007.6
20260505021044 20 225 0.0 11.3 0.00 0.00 0.00 61 1007.5
20260505020544 20 0 0.0 11.3 0.00 0.00 0.00 60 1007.4
20260505020056 20 213 3.2 11.3 0.00 0.00 0.00 60 1007.3
20260505015544 20 0 0.0 9.7 0.00 0.00 0.00 59 1007.1
20260505015044 20 0 0.0 11.3 0.00 0.00 0.00 59 1007.1
20260505014558 20 0 1.6 14.5 0.00 0.00 0.00 58 1007.0
20260505014045 20 227 1.6 14.5 0.00 0.00 0.00 58 1007.0
20260505013545 21 237 3.2 14.5 0.00 0.00 0.00 58 1007.1
20260505013055 21 223 1.6 11.3 0.00 0.00 0.00 57 1007.1
20260505012543 21 0 0.0 11.3 0.00 0.00 0.00 57 1007.0
20260505012046 21 235 0.0 14.5 0.00 0.00 0.00 56 1007.1
20260505011556 21 0 1.6 14.5 0.00 0.00 0.00 56 1007.0
20260505011048 21 250 1.6 14.5 0.00 0.00 0.00 56 1007.1
20260505010543 21 190 1.6 11.3 0.00 0.00 0.00 55 1007.0
20260505005544 22 0 3.2 14.5 0.00 0.00 0.00 54 1006.9
20260505005044 22 0 3.2 14.5 0.00 0.00 0.00 54 1006.9
20260505004552 22 198 0.0 17.7 0.00 0.00 0.00 53 1006.8
20260505004044 22 0 0.0 17.7 0.00 0.00 0.00 53 1006.9
20260505003547 22 179 0.0 16.1 0.00 0.00 0.00 53 1006.8
20260505003050 22 168 1.6 17.7 0.00 0.00 0.00 52 1006.8
20260505002548 23 214 3.2 17.7 0.00 0.00 0.00 51 1006.8
20260505002048 23 198 1.6 14.5 0.00 0.00 0.00 50 1006.8
20260505001554 23 178 3.2 16.1 0.00 0.00 0.00 49 1006.6
20260505001047 23 0 3.2 16.1 0.00 0.00 0.00 49 1006.6
20260505000547 23 0 1.6 20.9 0.00 0.00 0.00 49 1006.5
20260505000100 23 191 1.6 24.1 0.00 0.00 0.00 48 1006.4
20260504235548 24 221 3.2 24.1 0.00 0.00 0.00 47 1006.4
20260504235048 24 194 6.4 22.5 0.00 0.00 0.00 47 1006.4
20260504234550 24 173 3.2 22.5 0.00 0.00 0.00 48 1006.5
20260504234050 24 249 3.2 19.3 0.00 0.00 0.00 48 1006.5
20260504233548 25 219 1.6 16.1 0.00 0.00 0.00 47 1006.6
20260504233054 25 0 0.0 12.9 0.00 0.00 0.00 48 1006.5
20260504232548 25 0 3.2 14.5 0.00 0.00 0.00 48 1006.6
20260504232052 25 0 3.2 17.7 0.00 0.00 0.00 48 1006.7
20260504231551 24 225 3.2 17.7 0.00 0.00 0.00 48 1006.7
20260504231047 24 191 3.2 27.4 0.00 0.00 0.00 49 1006.7
20260504230551 24 220 6.4 27.4 0.00 0.00 0.00 48 1006.8
20260504230056 24 197 3.2 25.7 0.00 0.00 0.00 47 1006.8
20260504225548 25 200 9.7 32.2 0.00 0.00 0.00 46 1006.8
20260504225053 25 0 3.2 32.2 0.00 0.00 0.00 46 1006.8
20260504224559 25 236 9.7 32.2 0.00 0.00 0.00 46 1006.9
20260504224050 25 221 6.4 22.5 0.00 0.00 0.00 46 1006.9
20260504223544 25 207 12.9 22.5 0.00 0.00 0.00 46 1006.9
20260504223056 25 0 6.4 22.5 0.00 0.00 0.00 45 1006.9
20260504222548 25 195 8.0 22.5 0.00 0.00 0.00 45 1006.8
20260504222047 25 168 9.7 25.7 0.00 0.00 0.00 45 1006.9
20260504221554 25 169 8.0 25.7 0.00 0.00 0.00 45 1007.0
20260504221047 25 209 6.4 27.4 0.00 0.00 0.00 46 1006.9
20260504220548 25 237 9.7 27.4 0.00 0.00 0.00 45 1006.8
20260504220110 25 165 4.8 27.4 0.00 0.00 0.00 46 1006.9
20260504215548 25 188 12.9 27.4 0.00 0.00 0.00 45 1007.0
20260504215049 25 187 9.7 25.7 0.00 0.00 0.00 46 1007.0
20260504214554 26 289 8.0 22.5 0.00 0.00 0.00 44 1006.9
20260504214048 26 241 6.4 25.7 0.00 0.00 0.00 43 1007.0
20260504213548 26 194 9.7 25.7 0.00 0.00 0.00 43 1007.0
20260504213059 26 272 8.0 25.7 0.00 0.00 0.00 43 1007.0
20260504212544 26 215 3.2 24.1 0.00 0.00 0.00 45 1007.1
20260504212043 26 200 4.8 24.1 0.00 0.00 0.00 45 1007.1
20260504211556 26 259 8.0 22.5 0.00 0.00 0.00 44 1007.0
20260504211046 26 248 11.3 22.5 0.00 0.00 0.00 43 1007.2
20260504210545 26 0 6.4 27.4 0.00 0.00 0.00 44 1007.3
20260504210055 26 239 4.8 27.4 0.00 0.00 0.00 43 1007.3
20260504205544 26 221 8.0 29.0 0.00 0.00 0.00 43 1007.4
20260504205044 26 148 12.9 29.0 0.00 0.00 0.00 44 1007.4
20260504204552 26 0 6.4 27.4 0.00 0.00 0.00 44 1007.3
20260504204044 26 178 6.4 27.4 0.00 0.00 0.00 42 1007.4
20260504203545 26 165 3.2 20.9 0.00 0.00 0.00 45 1007.6
20260504203053 26 234 6.4 20.9 0.00 0.00 0.00 43 1007.6
20260504202544 26 254 6.4 25.7 0.00 0.00 0.00 44 1007.6
20260504202043 26 229 8.0 25.7 0.00 0.00 0.00 43 1007.7
20260504201551 26 237 6.4 17.7 0.00 0.00 0.00 42 1007.7
20260504201045 26 168 6.4 19.3 0.00 0.00 0.00 43 1007.9
20260504200544 26 208 8.0 29.0 0.00 0.00 0.00 44 1007.9
20260504200101 26 0 9.7 29.0 0.00 0.00 0.00 44 1008.0
20260504195542 26 291 9.7 27.4 0.00 0.00 0.00 43 1008.0
20260504195043 26 242 11.3 29.0 0.00 0.00 0.00 43 1008.0
20260504194556 25 248 9.7 29.0 0.00 0.00 0.00 44 1008.0
20260504194047 26 265 8.0 38.6 0.00 0.00 0.00 43 1008.1
20260504193544 26 167 9.7 38.6 0.00 0.00 0.00 45 1008.3
20260504193052 26 188 11.3 25.7 0.00 0.00 0.00 45 1008.2
20260504192544 25 0 9.7 25.7 0.00 0.00 0.00 45 1008.3
20260504192044 25 231 8.0 24.1 0.00 0.00 0.00 45 1008.3
20260504191557 25 172 6.4 25.7 0.00 0.00 0.00 45 1008.4
20260504191044 25 211 8.0 25.7 0.00 0.00 0.00 47 1008.6
20260504190544 25 292 11.3 30.6 0.00 0.00 0.00 44 1008.5
20260504190108 25 161 9.7 30.6 0.00 0.00 0.00 46 1008.5
20260504185544 25 220 11.3 24.1 0.00 0.00 0.00 44 1008.6
20260504185043 25 197 14.5 27.4 0.00 0.00 0.00 47 1008.5
20260504184611 25 198 9.7 27.4 0.00 0.00 0.00 46 1008.5
20260504184045 25 186 12.9 27.4 0.00 0.00 0.00 46 1008.6
20260504183545 25 205 9.7 27.4 0.00 0.00 0.00 47 1008.7
20260504183059 25 238 11.3 25.7 0.00 0.00 0.00 46 1008.6
20260504182545 25 186 9.7 25.7 0.00 0.00 0.00 47 1008.7
20260504182044 25 213 11.3 27.4 0.00 0.00 0.00 45 1008.7
20260504181556 25 244 12.9 27.4 0.00 0.00 0.00 46 1008.8
20260504181044 24 237 4.8 32.2 0.00 0.00 0.00 47 1008.9
20260504180545 24 264 9.7 33.8 0.00 0.00 0.00 48 1008.9
20260504180053 24 193 6.4 33.8 0.00 0.00 0.00 48 1008.9
20260504175544 24 234 9.7 29.0 0.00 0.00 0.00 46 1009.0
20260504175045 24 205 9.7 30.6 0.00 0.00 0.00 48 1009.0
20260504174600 24 248 12.9 30.6 0.00 0.00 0.00 47 1009.0
20260504174044 24 200 6.4 29.0 0.00 0.00 0.00 48 1009.0
20260504173545 24 187 9.7 29.0 0.00 0.00 0.00 49 1009.0
20260504173057 23 175 11.3 30.6 0.00 0.00 0.00 49 1009.0
20260504172543 23 242 8.0 30.6 0.00 0.00 0.00 48 1009.0
20260504172044 23 229 8.0 30.6 0.00 0.00 0.00 48 1009.1
20260504171556 23 248 9.7 30.6 0.00 0.00 0.00 49 1009.2
20260504171044 23 188 11.3 27.4 0.00 0.00 0.00 49 1009.1
20260504170545 23 175 8.0 25.7 0.00 0.00 0.00 48 1009.1
20260504151048 21 182 6.4 33.8 0.00 0.00 0.00 53 1010.1
20260504150544 21 224 12.9 33.8 0.00 0.00 0.00 52 1010.2
20260504141044 19 200 11.3 29.0 0.00 0.00 0.00 56 1011.0
20260504140545 19 248 9.7 27.4 0.00 0.00 0.00 56 1011.0
20260504130544 16 0 3.2 16.1 0.00 0.00 0.00 69 1010.9
20260504110545 14 246 0.0 8.0 0.00 0.00 0.00 73 1010.6
20260504100544 14 0 0.0 4.8 0.00 0.00 0.00 74 1010.8
20260504081603 14 0 0.0 6.4 0.00 0.00 0.00 76 1011.1
20260504081044 14 0 0.0 6.4 0.00 0.00 0.00 76 1011.1
20260504080544 14 0 0.0 3.2 0.00 0.00 0.00 76 1011.1